Orbital Elements at Epoch 2459000.5 (2020-May-31.0) TDB
Reference: JPL 20 (heliocentric ecliptic J2000)
Element | Value | Uncertainty (1-sigma) | Units |
e | .1678708819551998 | 3.0651e-08 | |
a | 2.187939136830429 | 7.4628e-09 | au |
q | 1.820647864266407 | 6.7515e-08 | au |
i | 5.277739448463536 | 3.5148e-06 | deg |
node | 273.5811058066727 | 4.9007e-05 | deg |
peri | 26.51594524949349 | 5.2861e-05 | deg |
M | 250.5697672632197 | 2.2947e-05 | deg |
tp | 2459359.823899548219 (2021-May-25.32389955) | 7.6427e-05 | TDB |
period | 1182.092010610163 3.24 | 6.048e-06 1.656e-08 | d yr |
n | .3045448211888158 | 1.5582e-09 | deg/d |
Q | 2.555230409394452 | 8.7156e-09 | au |
|
| | Orbit Determination Parameters
Additional Information
|